Location: D�pe
(52.6057°N, 8.1808°E)
Time: 01:51:14
(UTC+00:00)

SeaSat 1 - Pass Details

Date: 29 October 2020
Orbit: 744 x 747 km, 108.0° (Epoch: 23 November)

Event Time Altitude Azimuth Distance (km) Brightness Sun altitude
Exits shadow 18:00:38 34° 105° (ESE) 1,224 3.0 -18.4°
Maximum altitude 18:02:28 51° 50° (NE) 936 2.6 -18.7°
Drops below altitude 10° 18:07:15 10° 336° (NNW) 2,277 5.3 -19.4°
Sets 18:09:34 0° 331° (NNW) 3,205 6.2 -19.8°
